Regional Weather Roundup
Issued by NWS

Home | Current Version | Previous Version | Text Only | Print | Product List | Glossary Off
Versions: 1 2 3 4 5 6 7 8 9 10 11 12 13 14 15 16 17 18 19 20 21 22 23 24 25 26 27 28 29 30 31 32 33 34 35 36 37 38 39 40 41 42 43 44 45 46 47 48 49 50

000
ASUS43 KBIS 040202
RWRND

NORTH DAKOTA REGIONAL WEATHER ROUNDUP
NATIONAL WEATHER SERVICE BISMARCK ND
900 PM CDT FRI JUL 03 2015

NOTE: "FAIR" INDICATES FEW OR NO CLOUDS BELOW 12,000 FEET WITH NO
SIGNIFICANT WEATHER AND/OR OBSTRUCTIONS TO VISIBILITY.


NDZ001>003-009>011-017-040300-
NORTHWEST NORTH DAKOTA

CITY           SKY/WX    TMP DP  RH WIND       PRES   REMARKS
WILLISTON      PTCLDY    81  62  52 S10       29.85S
MINOT          CLOUDY    75  65  70 S7        29.86S HAZE
$$

NDZ018>021-031>035-040>046-040300-
SOUTHWEST NORTH DAKOTA

CITY           SKY/WX    TMP DP  RH WIND       PRES   REMARKS
BISMARCK       CLOUDY    72  66  81 SE5       29.90F HAZE
DICKINSON      PTCLDY    74  64  71 SE9       29.89F HAZE
GARRISON         N/A     74  67  78 SE7       29.88F
HETTINGER ARPT CLEAR     75  62  64 SE10      29.92F HAZE
$$

NDZ004>008-012>016-024-026-027-054-040300-
NORTHEAST NORTH DAKOTA

CITY           SKY/WX    TMP DP  RH WIND       PRES   REMARKS
GRAND FORKS    PTCLDY    71  64  78 CALM      29.88F HAZE
GRND FRKS AFB  PTCLDY    71  62  73 SE1       29.89F
DEVILS LAKE    PTCLDY    73  59  60 SE7       29.89S
$$

NDZ022-023-025-028>030-036>039-047>053-040300-
SOUTHEAST NORTH DAKOTA

CITY           SKY/WX    TMP DP  RH WIND       PRES   REMARKS
FARGO          CLEAR     73  64  73 E5        29.89S HAZE
JAMESTOWN      CLOUDY    75  64  68 S3        29.90F HAZE
$$




USA.gov is the U.S. government's official web portal to all federal, state and local government web resources and services.